﻿測定場所 (Monitoring sites),日付 (Measurement date),時間 (Measurement time),線量率 最大値 (max) μGy/h,線量率 最小値 (min) μGy/h,線量率 平均値 (average) μGy/h,
江戸川 (Edogawa),2012-09-23,23:01～24:00,0.109,0.0959,0.103,
江戸川 (Edogawa),2012-09-23,22:01～23:00,0.109,0.0950,0.102,
江戸川 (Edogawa),2012-09-23,21:01～22:00,0.110,0.0956,0.102,
江戸川 (Edogawa),2012-09-23,20:01～21:00,0.105,0.0966,0.102,
江戸川 (Edogawa),2012-09-23,19:01～20:00,0.110,0.0983,0.103,
江戸川 (Edogawa),2012-09-23,18:01～19:00,0.119,0.0988,0.105,
江戸川 (Edogawa),2012-09-23,17:01～18:00,0.111,0.101,0.107,
江戸川 (Edogawa),2012-09-23,16:01～17:00,0.113,0.100,0.107,
江戸川 (Edogawa),2012-09-23,15:01～16:00,0.111,0.0993,0.105,
江戸川 (Edogawa),2012-09-23,14:01～15:00,0.112,0.100,0.107,
江戸川 (Edogawa),2012-09-23,13:01～14:00,0.114,0.101,0.109,
江戸川 (Edogawa),2012-09-23,12:01～13:00,0.116,0.101,0.110,
江戸川 (Edogawa),2012-09-23,11:01～12:00,0.113,0.101,0.108,
江戸川 (Edogawa),2012-09-23,10:01～11:00,0.113,0.101,0.108,
江戸川 (Edogawa),2012-09-23,09:01～10:00,0.116,0.101,0.110,
江戸川 (Edogawa),2012-09-23,08:01～09:00,0.115,0.103,0.110,
江戸川 (Edogawa),2012-09-23,07:01～08:00,0.118,0.107,0.112,
江戸川 (Edogawa),2012-09-23,06:01～07:00,0.118,0.102,0.111,
江戸川 (Edogawa),2012-09-23,05:01～06:00,0.118,0.102,0.109,
江戸川 (Edogawa),2012-09-23,04:01～05:00,0.115,0.101,0.108,
江戸川 (Edogawa),2012-09-23,03:01～04:00,0.117,0.105,0.110,
江戸川 (Edogawa),2012-09-23,02:01～03:00,0.119,0.104,0.112,
江戸川 (Edogawa),2012-09-23,01:01～02:00,0.120,0.107,0.114,
江戸川 (Edogawa),2012-09-23,00:01～01:00,0.126,0.109,0.116,
江戸川 (Edogawa),2012-09-22,23:01～24:00,0.117,0.102,0.110,
江戸川 (Edogawa),2012-09-22,22:01～23:00,0.114,0.0974,0.105,
江戸川 (Edogawa),2012-09-22,21:01～22:00,0.112,0.0990,0.106,
江戸川 (Edogawa),2012-09-22,20:01～21:00,0.112,0.100,0.106,
江戸川 (Edogawa),2012-09-22,19:01～20:00,0.113,0.0993,0.106,
江戸川 (Edogawa),2012-09-22,18:01～19:00,0.110,0.0991,0.105,
江戸川 (Edogawa),2012-09-22,17:01～18:00,0.113,0.100,0.106,
江戸川 (Edogawa),2012-09-22,16:01～17:00,0.110,0.0990,0.105,
江戸川 (Edogawa),2012-09-22,15:01～16:00,0.110,0.0989,0.105,
江戸川 (Edogawa),2012-09-22,14:01～15:00,0.112,0.101,0.106,
江戸川 (Edogawa),2012-09-22,13:01～14:00,0.109,0.100,0.105,
江戸川 (Edogawa),2012-09-22,12:01～13:00,0.111,0.0997,0.105,
江戸川 (Edogawa),2012-09-22,11:01～12:00,0.112,0.0972,0.105,
江戸川 (Edogawa),2012-09-22,10:01～11:00,0.112,0.0999,0.106,
江戸川 (Edogawa),2012-09-22,09:01～10:00,0.110,0.0997,0.105,
江戸川 (Edogawa),2012-09-22,08:01～09:00,0.111,0.100,0.106,
江戸川 (Edogawa),2012-09-22,07:01～08:00,0.112,0.0999,0.105,
江戸川 (Edogawa),2012-09-22,06:01～07:00,0.110,0.0996,0.105,
江戸川 (Edogawa),2012-09-22,05:01～06:00,0.110,0.0988,0.105,
江戸川 (Edogawa),2012-09-22,04:01～05:00,0.112,0.0990,0.105,
江戸川 (Edogawa),2012-09-22,03:01～04:00,0.110,0.100,0.104,
江戸川 (Edogawa),2012-09-22,02:01～03:00,0.111,0.101,0.106,
江戸川 (Edogawa),2012-09-22,01:01～02:00,0.112,0.0983,0.105,
江戸川 (Edogawa),2012-09-22,00:01～01:00,0.111,0.0993,0.105,
江戸川 (Edogawa),2012-09-21,23:01～24:00,0.109,0.0995,0.104,
江戸川 (Edogawa),2012-09-21,22:01～23:00,0.110,0.0972,0.105,
江戸川 (Edogawa),2012-09-21,21:01～22:00,0.111,0.0980,0.105,
江戸川 (Edogawa),2012-09-21,20:01～21:00,0.112,0.0978,0.106,
江戸川 (Edogawa),2012-09-21,19:01～20:00,0.113,0.0976,0.105,
江戸川 (Edogawa),2012-09-21,18:01～19:00,0.111,0.100,0.105,
江戸川 (Edogawa),2012-09-21,17:01～18:00,0.110,0.0994,0.104,
江戸川 (Edogawa),2012-09-21,16:01～17:00,0.109,0.0995,0.104,
江戸川 (Edogawa),2012-09-21,15:01～16:00,0.113,0.0986,0.106,
江戸川 (Edogawa),2012-09-21,14:01～15:00,0.112,0.100,0.105,
江戸川 (Edogawa),2012-09-21,13:01～14:00,0.113,0.101,0.107,
江戸川 (Edogawa),2012-09-21,12:01～13:00,0.117,0.0991,0.107,
江戸川 (Edogawa),2012-09-21,11:01～12:00,0.111,0.0992,0.105,
江戸川 (Edogawa),2012-09-21,10:01～11:00,0.112,0.100,0.106,
江戸川 (Edogawa),2012-09-21,09:01～10:00,0.111,0.100,0.107,
江戸川 (Edogawa),2012-09-21,08:01～09:00,0.115,0.102,0.107,
江戸川 (Edogawa),2012-09-21,07:01～08:00,0.115,0.100,0.106,
江戸川 (Edogawa),2012-09-21,06:01～07:00,0.113,0.100,0.106,
江戸川 (Edogawa),2012-09-21,05:01～06:00,0.111,0.0992,0.106,
江戸川 (Edogawa),2012-09-21,04:01～05:00,0.114,0.100,0.105,
江戸川 (Edogawa),2012-09-21,03:01～04:00,0.111,0.0989,0.106,
江戸川 (Edogawa),2012-09-21,02:01～03:00,0.110,0.100,0.106,
江戸川 (Edogawa),2012-09-21,01:01～02:00,0.114,0.100,0.105,
江戸川 (Edogawa),2012-09-21,00:01～01:00,0.112,0.0996,0.105,
江戸川 (Edogawa),2012-09-20,23:01～24:00,0.112,0.100,0.105,
江戸川 (Edogawa),2012-09-20,22:01～23:00,0.110,0.0979,0.104,
江戸川 (Edogawa),2012-09-20,21:01～22:00,0.110,0.0993,0.105,
江戸川 (Edogawa),2012-09-20,20:01～21:00,0.112,0.0980,0.106,
江戸川 (Edogawa),2012-09-20,19:01～20:00,0.110,0.100,0.106,
江戸川 (Edogawa),2012-09-20,18:01～19:00,0.110,0.0987,0.105,
江戸川 (Edogawa),2012-09-20,17:01～18:00,0.110,0.0987,0.105,
江戸川 (Edogawa),2012-09-20,16:01～17:00,0.113,0.0987,0.105,
江戸川 (Edogawa),2012-09-20,15:01～16:00,0.110,0.0977,0.105,
江戸川 (Edogawa),2012-09-20,14:01～15:00,0.111,0.0991,0.104,
江戸川 (Edogawa),2012-09-20,13:01～14:00,0.109,0.0974,0.104,
江戸川 (Edogawa),2012-09-20,12:01～13:00,0.111,0.0976,0.104,
江戸川 (Edogawa),2012-09-20,11:01～12:00,0.113,0.0995,0.104,
江戸川 (Edogawa),2012-09-20,10:01～11:00,0.111,0.0974,0.103,
江戸川 (Edogawa),2012-09-20,09:01～10:00,0.109,0.0954,0.103,
江戸川 (Edogawa),2012-09-20,08:01～09:00,0.110,0.0967,0.103,
江戸川 (Edogawa),2012-09-20,07:01～08:00,0.107,0.0960,0.104,
江戸川 (Edogawa),2012-09-20,06:01～07:00,0.108,0.0975,0.103,
江戸川 (Edogawa),2012-09-20,05:01～06:00,0.108,0.0972,0.103,
江戸川 (Edogawa),2012-09-20,04:01～05:00,0.108,0.0968,0.103,
江戸川 (Edogawa),2012-09-20,03:01～04:00,0.109,0.0976,0.103,
江戸川 (Edogawa),2012-09-20,02:01～03:00,0.111,0.0978,0.103,
江戸川 (Edogawa),2012-09-20,01:01～02:00,0.109,0.0959,0.104,
江戸川 (Edogawa),2012-09-20,00:01～01:00,0.113,0.0958,0.104,
江戸川 (Edogawa),2012-09-19,23:01～24:00,0.109,0.0967,0.103,
江戸川 (Edogawa),2012-09-19,22:01～23:00,0.112,0.0966,0.103,
江戸川 (Edogawa),2012-09-19,21:01～22:00,0.109,0.0981,0.103,
江戸川 (Edogawa),2012-09-19,20:01～21:00,0.110,0.0978,0.103,
江戸川 (Edogawa),2012-09-19,19:01～20:00,0.111,0.0975,0.103,
江戸川 (Edogawa),2012-09-19,18:01～19:00,0.110,0.0984,0.103,
江戸川 (Edogawa),2012-09-19,17:01～18:00,0.107,0.0958,0.102,
江戸川 (Edogawa),2012-09-19,16:01～17:00,0.110,0.0972,0.103,
江戸川 (Edogawa),2012-09-19,15:01～16:00,0.110,0.0962,0.103,
江戸川 (Edogawa),2012-09-19,14:01～15:00,0.111,0.0986,0.103,
江戸川 (Edogawa),2012-09-19,13:01～14:00,0.109,0.0957,0.103,
江戸川 (Edogawa),2012-09-19,12:01～13:00,0.108,0.0954,0.102,
江戸川 (Edogawa),2012-09-19,11:01～12:00,0.109,0.0965,0.102,
江戸川 (Edogawa),2012-09-19,10:01～11:00,0.106,0.0957,0.101,
江戸川 (Edogawa),2012-09-19,09:01～10:00,0.106,0.0954,0.101,
江戸川 (Edogawa),2012-09-19,08:01～09:00,0.106,0.0911,0.0985,
江戸川 (Edogawa),2012-09-19,07:01～08:00,0.106,0.0776,0.0933,
江戸川 (Edogawa),2012-09-19,06:01～07:00,0.107,0.0955,0.102,
江戸川 (Edogawa),2012-09-19,05:01～06:00,0.109,0.0856,0.0978,
江戸川 (Edogawa),2012-09-19,04:01～05:00,0.109,0.0982,0.103,
江戸川 (Edogawa),2012-09-19,03:01～04:00,0.111,0.0952,0.103,
江戸川 (Edogawa),2012-09-19,02:01～03:00,0.108,0.0957,0.103,
江戸川 (Edogawa),2012-09-19,01:01～02:00,0.106,0.0935,0.101,
江戸川 (Edogawa),2012-09-19,00:01～01:00,0.110,0.0976,0.103,
江戸川 (Edogawa),2012-09-18,23:01～24:00,0.108,0.0982,0.103,
江戸川 (Edogawa),2012-09-18,22:01～23:00,0.111,0.0983,0.104,
江戸川 (Edogawa),2012-09-18,21:01～22:00,0.109,0.0991,0.104,
江戸川 (Edogawa),2012-09-18,20:01～21:00,0.109,0.0994,0.104,
江戸川 (Edogawa),2012-09-18,19:01～20:00,0.109,0.0987,0.104,
江戸川 (Edogawa),2012-09-18,18:01～19:00,0.109,0.0971,0.103,
江戸川 (Edogawa),2012-09-18,17:01～18:00,0.110,0.0978,0.104,
江戸川 (Edogawa),2012-09-18,16:01～17:00,0.109,0.0971,0.103,
江戸川 (Edogawa),2012-09-18,15:01～16:00,0.110,0.0958,0.103,
江戸川 (Edogawa),2012-09-18,14:01～15:00,0.111,0.0999,0.105,
江戸川 (Edogawa),2012-09-18,13:01～14:00,0.113,0.0997,0.104,
江戸川 (Edogawa),2012-09-18,12:01～13:00,0.108,0.0988,0.104,
江戸川 (Edogawa),2012-09-18,11:01～12:00,0.112,0.0962,0.105,
江戸川 (Edogawa),2012-09-18,10:01～11:00,0.112,0.0978,0.104,
江戸川 (Edogawa),2012-09-18,09:01～10:00,0.109,0.0982,0.104,
江戸川 (Edogawa),2012-09-18,08:01～09:00,0.109,0.0983,0.103,
江戸川 (Edogawa),2012-09-18,07:01～08:00,0.107,0.0984,0.103,
江戸川 (Edogawa),2012-09-18,06:01～07:00,0.110,0.0943,0.103,
江戸川 (Edogawa),2012-09-18,05:01～06:00,0.108,0.0976,0.103,
江戸川 (Edogawa),2012-09-18,04:01～05:00,0.109,0.0986,0.104,
江戸川 (Edogawa),2012-09-18,03:01～04:00,0.108,0.0994,0.104,
江戸川 (Edogawa),2012-09-18,02:01～03:00,0.110,0.0984,0.104,
江戸川 (Edogawa),2012-09-18,01:01～02:00,0.111,0.0989,0.104,
江戸川 (Edogawa),2012-09-18,00:01～01:00,0.111,0.0993,0.105,
江戸川 (Edogawa),2012-09-17,23:01～24:00,0.110,0.0997,0.104,
江戸川 (Edogawa),2012-09-17,22:01～23:00,0.113,0.0995,0.105,
江戸川 (Edogawa),2012-09-17,21:01～22:00,0.110,0.0989,0.104,
江戸川 (Edogawa),2012-09-17,20:01～21:00,0.108,0.0988,0.104,
江戸川 (Edogawa),2012-09-17,19:01～20:00,0.110,0.0999,0.104,
江戸川 (Edogawa),2012-09-17,18:01～19:00,0.110,0.0968,0.104,
江戸川 (Edogawa),2012-09-17,17:01～18:00,0.110,0.0982,0.104,
江戸川 (Edogawa),2012-09-17,16:01～17:00,0.109,0.0975,0.104,
江戸川 (Edogawa),2012-09-17,15:01～16:00,0.111,0.0978,0.103,
江戸川 (Edogawa),2012-09-17,14:01～15:00,0.112,0.0946,0.104,
江戸川 (Edogawa),2012-09-17,13:01～14:00,0.109,0.0979,0.103,
江戸川 (Edogawa),2012-09-17,12:01～13:00,0.112,0.0973,0.104,
江戸川 (Edogawa),2012-09-17,11:01～12:00,0.110,0.0989,0.104,
江戸川 (Edogawa),2012-09-17,10:01～11:00,0.110,0.0967,0.104,
江戸川 (Edogawa),2012-09-17,09:01～10:00,0.111,0.0965,0.103,
江戸川 (Edogawa),2012-09-17,08:01～09:00,0.113,0.0974,0.104,
江戸川 (Edogawa),2012-09-17,07:01～08:00,0.108,0.0984,0.103,
江戸川 (Edogawa),2012-09-17,06:01～07:00,0.109,0.0955,0.103,
江戸川 (Edogawa),2012-09-17,05:01～06:00,0.110,0.0980,0.103,
江戸川 (Edogawa),2012-09-17,04:01～05:00,0.112,0.0958,0.103,
江戸川 (Edogawa),2012-09-17,03:01～04:00,0.107,0.0970,0.103,
江戸川 (Edogawa),2012-09-17,02:01～03:00,0.109,0.0978,0.103,
江戸川 (Edogawa),2012-09-17,01:01～02:00,0.104,0.0908,0.0983,
江戸川 (Edogawa),2012-09-17,00:01～01:00,0.113,0.0918,0.103,
